Content
SEND FEEDBACK

Daily
Averages
Monthly
Summary
United States of America

CARSON CITY, NEVADA


Home > North America > United States > Nevada
Elevation: 4742 feet     Latitude: 39 09N     Longitude: 119 46W

WEATHER
 
SELECT A DAY
Number of Records: 93,904;   Date Range: 7/14/10 - 9/19/14
 
SHARE

PRINT THIS DATA

[ ← Previous Day ]
WEATHER ALMANAC - FEBRUARY 10, 2013
[ Next Day → ]
[ °C ]   °F
Weather ElementAverageHighLow
Temperature28.6 °F39.2 °F (1:15 pm)17.6 °F (4:15 am)
Dewpoint14.5 °F19.4 °F (10:35 am)10.4 °F (4:55 pm)
Humidity58.6 %86 % (4:15 am)33 % (4:15 pm)
Barometer30.09 in30.14 in (11:55 pm)30.05 in (2:35 pm)
Wind Speed5.6 mph16.1 mph (11:35 am)
Wind Gust23 mph (11:35 am)
Weather ElementAverage
Visibility10 mi
Wind DirectionE (90.7 °)

Weather ElementTotal
Precipitation---
Heating Degree Days36.6 (Base 65)
Averaged from 70 records on February 10, 2013
WEATHER CONDITIONS BREAKOUT
WIND DIRECTION BREAKOUT
WEATHER BY HOUR - FEBRUARY 10, 2013
[ °C ]   °F
Local TimeTemperatureDewpointHumidityBarometerVisibilityWind DirectionWind SpeedGust SpeedPrecipitationEventsConditions
12:35 AM24.8 °F14.0 °F64 %30.09 in10.0 miNW (310°)3.5 mphClear
12:55 AM24.8 °F14.0 °F64 %30.09 in10.0 miSouth (180°)5.8 mphClear
1:15 AM23.0 °F14.0 °F68 %30.10 in10.0 miCalmClear
1:35 AM23.0 °F15.8 °F74 %30.10 in10.0 miCalmClear
1:55 AM21.2 °F14.0 °F74 %30.10 in10.0 miCalmClear
2:15 AM21.2 °F14.0 °F74 %30.09 in10.0 miCalmClear
2:35 AM19.4 °F14.0 °F80 %30.09 in10.0 miCalmClear
2:55 AM19.4 °F14.0 °F80 %30.09 in10.0 miCalmClear
3:15 AM19.4 °F14.0 °F80 %30.08 in10.0 miCalmClear
3:35 AM19.4 °F14.0 °F80 %30.09 in10.0 miCalmClear
3:55 AM19.4 °F14.0 °F80 %30.09 in10.0 miCalmPartly Cloudy
4:15 AM17.6 °F14.0 °F86 %30.09 in10.0 miCalmPartly Cloudy
4:35 AM17.6 °F14.0 °F86 %30.09 in10.0 miCalmPartly Cloudy
4:55 AM17.6 °F14.0 °F86 %30.09 in10.0 miCalmClear
5:15 AM17.6 °F14.0 °F86 %30.09 in10.0 miCalmClear
5:35 AM17.6 °F14.0 °F86 %30.09 in10.0 miCalmClear
5:55 AM19.4 °F14.0 °F80 %30.09 in10.0 miCalmClear
6:15 AM19.4 °F14.0 °F80 %30.08 in10.0 miCalmClear
6:35 AM19.4 °F14.0 °F80 %30.08 in10.0 miSW (220°)3.5 mphClear
6:55 AM17.6 °F14.0 °F86 %30.09 in10.0 miCalmClear
7:15 AM17.6 °F14.0 °F86 %30.09 in10.0 miCalmClear
7:35 AM19.4 °F14.0 °F80 %30.09 in10.0 miCalmClear
7:55 AM23.0 °F15.8 °F74 %30.09 in10.0 miCalmClear
8:15 AM24.8 °F15.8 °F69 %30.10 in10.0 miCalmPartly Cloudy
8:35 AM24.8 °F15.8 °F69 %30.10 in10.0 miCalmMostly Cloudy
8:55 AM24.8 °F15.8 °F69 %30.10 in10.0 miCalmOvercast
9:15 AM26.6 °F15.8 °F64 %30.11 in10.0 miCalmOvercast
9:35 AM28.4 °F17.6 °F64 %30.10 in10.0 miCalmOvercast
9:55 AM32.0 °F17.6 °F55 %30.10 in10.0 miSouth (180°)3.5 mphOvercast
10:15 AM32.0 °F17.6 °F55 %30.10 in10.0 miNNW (340°)11.5 mphOvercast
10:35 AM33.8 °F19.4 °F56 %30.11 in10.0 miNNW (340°)12.7 mphOvercast
10:55 AM35.6 °F19.4 °F52 %30.10 in10.0 miNorth (350°)15.0 mphOvercast
11:15 AM35.6 °F17.6 °F48 %30.10 in10.0 miNNW (340°)11.5 mphMostly Cloudy
11:35 AM35.6 °F17.6 °F48 %30.10 in10.0 miNNW (330°)16.1 mph23.0 mphOvercast
11:55 AM35.6 °F17.6 °F48 %30.09 in10.0 miNNW (340°)12.7 mphOvercast
12:15 PM37.4 °F17.6 °F45 %30.08 in10.0 miNorth (350°)16.1 mph19.6 mphMostly Cloudy
12:55 PM37.4 °F17.6 °F45 %30.07 in10.0 miNNW (340°)13.8 mphOvercast
1:15 PM39.2 °F15.8 °F39 %30.06 in10.0 miNorth (10°)4.6 mphOvercast
1:35 PM37.4 °F15.8 °F41 %30.06 in10.0 miNorth (350°)15.0 mphOvercast
1:55 PM37.4 °F15.8 °F41 %30.06 in10.0 miNNW (330°)11.5 mphOvercast
2:15 PM37.4 °F14.0 °F38 %30.06 in10.0 miNNE (20°)11.5 mphMostly Cloudy
2:35 PM39.2 °F14.0 °F36 %30.05 in10.0 miNNE (30°)11.5 mph17.3 mphPartly Cloudy
2:55 PM39.2 °F14.0 °F36 %30.05 in10.0 miNorth (350°)13.8 mph18.4 mphPartly Cloudy
3:15 PM39.2 °F14.0 °F36 %30.06 in10.0 miNorth (350°)11.5 mph17.3 mphMostly Cloudy
3:35 PM39.2 °F14.0 °F36 %30.06 in10.0 miNE (40°)11.5 mph17.3 mphScattered Clouds
3:55 PM39.2 °F14.0 °F36 %30.06 in10.0 miNorth (360°)9.2 mphMostly Cloudy
4:15 PM39.2 °F12.2 °F33 %30.06 in10.0 miNE (40°)11.5 mph18.4 mphMostly Cloudy
4:35 PM39.2 °F12.2 °F33 %30.06 in10.0 miNNE (30°)10.4 mphPartly Cloudy
4:55 PM37.4 °F10.4 °F33 %30.06 in10.0 miNorth (10°)11.5 mph18.4 mphClear
5:15 PM37.4 °F12.2 °F36 %30.07 in10.0 miNNE (30°)8.1 mphClear
5:35 PM35.6 °F10.4 °F35 %30.07 in10.0 miNNE (20°)11.5 mphClear
5:55 PM35.6 °F12.2 °F38 %30.07 in10.0 miNorth (10°)9.2 mphClear
6:15 PM32.0 °F14.0 °F48 %30.08 in10.0 miNorth (360°)8.1 mphClear
6:35 PM32.0 °F14.0 °F48 %30.09 in10.0 miNorth (10°)9.2 mphClear
6:55 PM32.0 °F14.0 °F48 %30.09 in10.0 miNorth (10°)9.2 mphClear
7:15 PM33.8 °F12.2 °F41 %30.09 in10.0 miNorth (10°)10.4 mphClear
7:35 PM33.8 °F12.2 °F41 %30.09 in10.0 miNNE (30°)10.4 mphClear
7:55 PM32.0 °F14.0 °F48 %30.09 in10.0 miNNE (30°)9.2 mphClear
8:15 PM32.0 °F14.0 °F48 %30.10 in10.0 miNE (40°)10.4 mphClear
8:35 PM32.0 °F14.0 °F48 %30.10 in10.0 miENE (70°)11.5 mphClear
8:55 PM28.4 °F14.0 °F55 %30.11 in10.0 miENE (70°)10.4 mphClear
9:15 PM30.2 °F14.0 °F51 %30.12 in10.0 miENE (60°)10.4 mphClear
9:35 PM30.2 °F14.0 °F51 %30.12 in10.0 miCalmClear
9:55 PM28.4 °F14.0 °F55 %30.12 in10.0 miCalmClear
10:15 PM28.4 °F14.0 °F55 %30.12 in10.0 miCalmClear
10:35 PM26.6 °F14.0 °F59 %30.13 in10.0 miCalmClear
10:55 PM24.8 °F14.0 °F64 %30.13 in10.0 miCalmClear
11:15 PM23.0 °F14.0 °F68 %30.13 in10.0 miENE (60°)4.6 mphClear
11:35 PM24.8 °F12.2 °F59 %30.13 in10.0 miCalmClear
11:55 PM24.8 °F14.0 °F64 %30.14 in10.0 miCalmClear
Hourly data recorded from KCXP, located miles away from Carson City, Nevada







STORIES FROM OUR PARTNERS